Portada
METAR-TAF:

METAR-TAF

Aeroports :

Silver Bay Municipal Airport

Silver Bay, Minnesota, Estats Units d'Amèrica

latitud: 47-12N, longitud: 091-24W, altitud: 331 m

Observació

L'informe es va fer fa 7 minuts, a les 18:43 UTC
Vent 8 kt del Est
Temperatura 25°C
Humitat 54%
Pressió 1011 hPa
Visibilitat: 16.1 km
Cel clar

METAR: KBFW 191843Z AUTO 08008KT 10SM CLR 25/15 A2985 RMK AO2

Hora: 13:50 (18:50 UTC)


TAF: manca

Observacions i pronòstics meteorològics de més de 4000 aeroports (METAR i TAF).

Les estacions disponibles són els punts grocs i vermells al mapa.

Posi el ratolí al punt desitjat per veure el nom de l'estació.

Feu clic per veure les observacions i els pronòstics meteorològics.

Per canviar el mapa: feu clic els botons verds amb una creu de color negre per apropar; al botó verd amb un guió per allunyar la imatge; o en les fletxes verdes per a mapes adjacents.


METAR-TAF: